Location: Maddington
(51.2000°N, 1.9167°W)
Time: 16:43:07
(UTC+00:00)

Cosmos 1125 Rocket - Pass Details

Date: 21 June 2021
Orbit: 757 x 780 km, 74.0° (Epoch: 25 July)

Event Time Altitude Azimuth Distance (km) Brightness Sun altitude
Rises 00:25:13 0° 340° (NNW) 3,243 8.0 -15.3°
Reaches altitude 10° 00:28:15 10° 357° (N) 2,317 7.4 -15.2°
Maximum altitude 00:32:04 20° 44° (NE) 1,735 6.0 -15.2°
Drops below altitude 10° 00:35:53 10° 91° (E) 2,320 6.1 -15.1°
Sets 00:38:54 0° 108° (ESE) 3,248 6.6 -15.1°
